sat.trackr.live / text

‹ back to catalog

STARLINK-5621

NORAD 55434 · 2023-014AV

PAYLOAD ACTIVE UNKNOWN

§ Identity

Operator
Country
US
Launch date
2023-01-31
Launch site
AFWTR
Launch vehicle
Mass (kg)
RCS (m²)

Purposes: comms

External: N2YO · Heavens-Above · Gunter

§ Orbital elements

Epoch: 2026-09-20T14:22:08.944032Z

Period
96.11 min
Inclination
69.9997°
Eccentricity
0.0003594
Mean motion
14.98329921 rev/d
Perigee alt
569.6 km
Apogee alt
574.6 km
Semi-major
6,950.2 km
B*
5.5586e-6
RAAN
333.0449°
Arg perigee
268.1733°
Mean anomaly
91.9015°
Rev number
20,026

§ Raw data

STARLINK-56211 55434U 23014AV  26263.59871463 -.00000027  00000+0  55586-5 0  99962 55434  69.9997 333.0449 0003594 268.1733  91.9015 14.98329921200262

JSON: /api/v1/satellites/55434 · /tle

For live sub-satellite position, see the globe view (requires WebGL).

§ Visibility from observer

Set your observer location to see the next 7 days of passes ≥ 10°. The values pass through the URL so the page stays shareable.

No JS? Fill the form by hand. The geolocation button needs JavaScript.